Regional Weather Roundup
Issued by NWS Charleston, WV

Home | Current Version | Previous Version | Graphics & Text | Print | Product List | Glossary On
Versions: 1 2 3 4 5 6 7 8 9 10 11 12 13 14 15 16 17 18 19 20 21 22 23 24 25 26 27 28 29 30 31 32 33 34 35 36 37 38 39 40 41 42 43 44 45 46 47 48 49 50
000
ASUS41 KRLX 260110
RWRRLX
West Virginia Regional Weather Roundup
National Weather Service Charleston WV
900 PM EDT SAT APR 25 2015

Note: "fair" indicates few or no clouds below 12,000 feet with no
significant weather and/or obstructions to visibility.

WVZ003-260200-
Northern Panhandle of West Virginia

CITY           SKY/WX    TMP DP  RH WIND       PRES   REMARKS
WHEELING       LGT RAIN  45  35  68 E6        29.69F
$$

WVZ009-260200-
Northwest West Virginia

CITY           SKY/WX    TMP DP  RH WIND       PRES   REMARKS
PARKERSBURG    CLOUDY    44  41  89 E5        29.71R
$$

WVZ006-260200-
Western West Virginia

CITY           SKY/WX    TMP DP  RH WIND       PRES   REMARKS
HUNTINGTON     CLOUDY    45  45 100 NE8G17    29.61F
$$

WVZ015-260200-
West Central West Virginia

CITY           SKY/WX    TMP DP  RH WIND       PRES   REMARKS
CHARLESTON     LGT RAIN  47  45  93 NE10      29.62F
$$

WVZ022-031-260200-
North Central West Virginia

CITY           SKY/WX    TMP DP  RH WIND       PRES   REMARKS
CLARKSBURG     LGT RAIN  42  41  96 N8        29.71S
MORGANTOWN     LGT RAIN  43  37  79 CALM      29.75R
$$

WVZ025-035-042-045-260200-
Southern West Virginia

CITY           SKY/WX    TMP DP  RH WIND       PRES   REMARKS
BECKLEY        CLOUDY    43  41  93 E9        29.61S
LOGAN          FOG       48  48 100 MISG      29.55F VSB<1/4
BLUEFIELD      PTCLDY    48  42  80 N12       29.64R THUNDER
LEWISBURG      CLOUDY    41  40  93 CALM      29.65S
$$

WVZ047-260200-
Northern Mountains of West Virginia

CITY           SKY/WX    TMP DP  RH WIND       PRES   REMARKS
ELKINS         LGT RAIN  43  40  89 N6        29.67S
$$

WVZ052-260200-
Eastern Panhandle of West Virginia

CITY           SKY/WX    TMP DP  RH WIND       PRES   REMARKS
MARTINSBURG    LGT RAIN  40  36  86 SW3       29.77R
PETERSBURG     LGT RAIN  41  37  83 NW3       29.74S
$$


USA.gov is the U.S. government's official web portal to all federal, state and local government web resources and services.